Total_Precipitation_Accumulation
1.12 0.99 0.93 1.10 1.07 1.06 1.07 1.08 1.04 0.92 0.82 0.69 0.65 0.61 0.66 0.65 0.64 0.62 0.79 0.81 1.00 1.30 1.42 1.36 1.30 1.12 1.11 1.13 1.22 1.34 1.42 1.39 1.63 1.88 1.87 1.87 1.76 1.41 1.14 1.00 0.96 0.86 0.92
1.01 1.01 0.88 0.94 1.01 1.12 1.27 1.28 1.11 1.03 0.94 0.85 0.84 0.81 0.79 0.76 0.75 0.64 0.74 0.80 0.73 0.84 1.09 1.38 1.50 1.37 1.31 1.27 1.29 1.38 1.43 1.39 1.49 1.71 1.76 1.85 1.87 1.57 1.17 0.98 0.93 0.84 0.89
0.85 0.98 0.96 0.93 0.95 1.13 1.31 1.40 1.28 1.19 1.02 0.96 0.95 0.92 0.84 0.88 0.86 0.76 0.78 0.86 0.71 0.63 0.82 1.18 1.48 1.56 1.49 1.48 1.44 1.46 1.42 1.38 1.39 1.50 1.62 1.60 1.66 1.54 1.24 1.06 0.98 0.97 0.95
0.92 1.04 1.08 1.00 0.98 1.15 1.33 1.45 1.51 1.48 1.33 1.24 1.16 1.05 0.99 1.08 1.00 0.88 0.85 0.88 0.91 0.79 0.76 0.88 1.16 1.43 1.57 1.63 1.52 1.39 1.35 1.28 1.27 1.28 1.39 1.30 1.36 1.38 1.20 1.06 1.06 1.09 1.10
0.93 1.06 1.22 1.23 1.21 1.29 1.34 1.35 1.43 1.41 1.42 1.40 1.26 1.20 1.12 1.16 1.16 1.02 0.99 1.03 1.05 1.03 0.91 0.75 0.87 0.91 1.22 1.55 1.59 1.49 1.42 1.32 1.23 1.15 1.27 1.15 1.12 1.19 1.06 1.02 1.08 1.11 1.08
1.15 1.11 1.23 1.25 1.28 1.42 1.43 1.54 1.69 1.57 1.46 1.53 1.43 1.32 1.22 1.16 1.12 1.13 1.18 1.21 1.19 1.11 1.08 0.94 0.93 0.75 0.84 1.15 1.37 1.47 1.44 1.46 1.40 1.27 1.28 1.15 1.02 1.06 1.05 0.96 0.95 0.98 1.02
1.29 1.30 1.31 1.30 1.31 1.36 1.39 1.57 1.88 1.81 1.63 1.55 1.71 1.63 1.46 1.29 1.18 1.17 1.20 1.33 1.36 1.25 1.23 1.27 1.13 0.94 0.76 0.77 0.87 1.18 1.33 1.51 1.60 1.49 1.40 1.24 1.05 1.04 1.05 0.88 0.90 0.97 0.95
1.26 1.19 1.34 1.43 1.38 1.46 1.54 1.69 1.92 2.03 1.83 1.68 1.93 2.25 1.97 1.68 1.32 1.18 1.20 1.19 1.32 1.33 1.25 1.16 1.12 1.07 0.91 0.83 0.62 0.76 1.02 1.29 1.58 1.55 1.43 1.33 1.15 1.04 1.02 0.90 0.86 0.94 0.97
1.51 1.43 1.50 1.64 1.55 1.56 1.61 1.66 1.71 2.07 2.16 1.98 1.96 2.38 2.17 1.95 1.87 1.41 1.14 1.08 1.28 1.37 1.35 1.24 1.13 1.20 1.17 1.04 0.84 0.62 0.69 0.89 1.31 1.51 1.45 1.40 1.28 1.12 1.01 0.93 0.87 0.91 1.03
1.72 1.61 1.59 1.64 1.66 1.70 1.64 1.53 1.66 1.99 2.37 2.36 2.19 2.01 1.85 1.75 1.93 1.80 1.31 1.07 1.17 1.29 1.40 1.31 1.23 1.25 1.30 1.26 1.15 0.85 0.61 0.63 0.99 1.39 1.47 1.46 1.40 1.23 1.11 1.00 0.95 0.91 0.96
1.73 1.59 1.51 1.55 1.62 1.72 1.71 1.75 1.89 2.15 2.38 2.54 2.48 2.21 1.94 1.73 1.45 1.61 1.59 1.38 1.17 1.10 1.14 1.27 1.35 1.28 1.27 1.22 1.26 1.09 0.73 0.55 0.70 1.12 1.42 1.52 1.47 1.34 1.20 1.13 1.06 1.05 1.04
1.55 1.52 1.49 1.45 1.41 1.48 1.59 1.75 1.98 2.10 2.26 2.45 2.46 2.19 1.99 1.84 1.67 1.61 1.47 1.51 1.50 1.23 1.06 1.07 1.15 1.18 1.21 1.23 1.10 1.18 0.95 0.67 0.56 0.69 0.94 1.23 1.36 1.39 1.33 1.29 1.25 1.24 1.28
1.34 1.36 1.37 1.32 1.22 1.21 1.33 1.51 1.72 1.78 1.90 2.08 2.15 2.04 1.93 1.77 1.70 1.78 1.73 1.63 1.51 1.22 1.05 0.91 0.96 1.03 1.02 1.11 1.20 1.24 1.01 0.83 0.63 0.51 0.54 0.69 0.90 1.16 1.36 1.46 1.49 1.47 1.45
1.17 1.11 1.14 1.15 1.12 1.10 1.13 1.23 1.34 1.42 1.52 1.69 1.77 1.80 1.69 1.65 1.69 1.68 1.68 1.79 1.67 1.40 1.07 0.78 0.79 0.90 0.86 0.90 1.12 1.19 0.87 0.79 0.68 0.56 0.49 0.48 0.54 0.70 0.96 1.17 1.40 1.63 1.70
0.94 0.90 0.97 1.06 1.12 1.05 0.99 1.06 1.13 1.18 1.30 1.44 1.58 1.72 1.67 1.61 1.63 1.68 1.73 1.75 1.74 1.58 1.27 0.89 0.75 0.72 0.77 0.82 1.04 0.98 0.86 0.84 0.72 0.64 0.54 0.45 0.41 0.43 0.57 0.72 0.91 1.10 1.22
0.85 0.85 0.88 0.89 0.91 0.89 0.92 1.02 1.12 1.21 1.23 1.29 1.38 1.52 1.64 1.67 1.71 1.72 1.76 1.77 1.71 1.62 1.47 1.09 0.85 0.72 0.81 0.77 0.90 0.78 0.88 1.04 0.81 0.64 0.55 0.49 0.44 0.43 0.43 0.50 0.55 0.60 0.62
0.66 0.68 0.66 0.70 0.81 0.81 0.81 0.90 0.97 1.00 1.11 1.20 1.22 1.24 1.41 1.56 1.67 1.72 1.73 1.72 1.75 1.67 1.46 1.26 1.00 0.83 0.91 0.90 0.91 0.81 0.86 0.92 0.82 0.75 0.65 0.56 0.49 0.47 0.44 0.45 0.45 0.42 0.43
0.44 0.51 0.55 0.54 0.70 0.86 0.88 0.92 0.94 0.90 0.98 1.03 1.06 1.14 1.24 1.27 1.37 1.52 1.63 1.63 1.70 1.72 1.60 1.48 1.22 1.01 0.98 0.97 1.06 1.09 1.06 1.02 0.98 1.04 0.98 0.80 0.65 0.58 0.52 0.46 0.43 0.40 0.37
0.34 0.38 0.51 0.50 0.55 0.72 0.83 0.84 0.80 0.80 0.84 0.88 0.91 0.98 1.04 1.13 1.23 1.26 1.36 1.46 1.54 1.58 1.63 1.55 1.45 1.31 1.16 1.09 1.09 1.07 1.16 1.30 1.26 1.24 1.27 1.09 0.88 0.74 0.66 0.59 0.52 0.46 0.41
0.36 0.35 0.35 0.37 0.43 0.53 0.66 0.67 0.66 0.66 0.67 0.71 0.83 0.91 0.97 1.01 1.09 1.16 1.19 1.31 1.44 1.53 1.54 1.50 1.45 1.38 1.31 1.28 1.25 1.19 1.25 1.39 1.47 1.37 1.35 1.27 1.17 1.05 0.90 0.78 0.66 0.59 0.55
0.22 0.24 0.21 0.22 0.27 0.35 0.39 0.41 0.48 0.54 0.61 0.67 0.78 0.82 0.85 0.81 0.85 0.93 0.92 1.09 1.25 1.42 1.49 1.52 1.44 1.34 1.28 1.28 1.26 1.27 1.32 1.47 1.53 1.57 1.57 1.44 1.32 1.15 1.01 0.91 0.78 0.70 0.67
0.09 0.14 0.14 0.16 0.20 0.22 0.27 0.25 0.30 0.44 0.54 0.62 0.70 0.73 0.80 0.82 0.78 0.74 0.73 0.81 0.94 1.06 1.23 1.36 1.39 1.31 1.24 1.22 1.30 1.41 1.42 1.49 1.59 1.54 1.46 1.54 1.46 1.34 1.17 0.98 0.95 0.91 0.82
0.06 0.09 0.09 0.13 0.17 0.14 0.16 0.15 0.26 0.46 0.53 0.54 0.54 0.66 0.78 0.84 0.87 0.89 0.77 0.76 0.77 0.81 0.91 1.08 1.21 1.22 1.20 1.21 1.26 1.35 1.43 1.45 1.38 1.45 1.41 1.49 1.47 1.34 1.19 1.12 1.15 1.02 0.93
0.03 0.07 0.08 0.15 0.14 0.09 0.11 0.14 0.21 0.38 0.47 0.45 0.47 0.57 0.72 0.84 0.87 0.89 0.84 0.90 0.88 0.79 0.76 0.84 1.02 1.10 1.10 1.22 1.34 1.44 1.56 1.54 1.49 1.49 1.42 1.43 1.37 1.23 1.13 1.12 1.20 1.06 0.96
0.03 0.06 0.09 0.11 0.08 0.05 0.07 0.11 0.20 0.37 0.46 0.47 0.44 0.52 0.67 0.76 0.86 0.87 0.84 0.95 0.95 0.78 0.71 0.81 0.85 0.92 1.00 1.12 1.30 1.44 1.52 1.53 1.51 1.51 1.36 1.23 1.18 1.22 1.22 1.15 1.11 1.09 0.98
0.02 0.03 0.06 0.07 0.06 0.07 0.06 0.07 0.15 0.26 0.35 0.44 0.44 0.49 0.69 0.74 0.77 0.74 0.76 0.96 1.06 0.93 0.70 0.68 0.75 0.87 0.96 1.09 1.31 1.45 1.66 1.65 1.46 1.44 1.34 1.21 1.19 1.27 1.40 1.30 1.12 1.01 0.94